This demonstration page uses our WeatherBlox Daily Observations layout. Learn more.

Hourly Observations for July 31, 2018

Temp ( °F °C ) Dew Point ( °F °C ) Humidity (%) Winds ( mph kmh ) Pressure ( in mb ) Visibility ( mi km ) Precip ( " mm )
12:15 am 00:15 Clear 56 13.5 56 13.5 100 100 NNW 5 7 30.21 1023 10 16.0934 0 0
12:35 am 00:35 Clear 56 13.2 56 13.2 100 100 NW 5 7 30.21 1023 10 16.0934 0 0
12:55 am 00:55 Clear 56 13.2 56 13.2 100 100 NW 5 7 30.18 1022 10 16.0934 0 0
1:15 am 01:15 Clear 55 13 55 13 100 100 NW 5 7 30.18 1022 10 16.0934 0 0
1:35 am 01:35 Clear 55 12.7 55 12.7 100 100 NW 5 7 30.18 1022 10 16.0934 0 0
1:55 am 01:55 Clear 55 12.5 55 12.5 100 100 Calm 30.18 1022 10 16.0934 0 0
2:15 am 02:15 Clear 54 12.2 54 12.2 100 100 NW 3 6 30.18 1022 10 16.0934 0 0
2:35 am 02:35 Clear 53 11.6 53 11.6 100 100 NNW 5 7 30.18 1022 7 11.26538 0 0
2:55 am 02:55 Clear 54 12.1 54 12.1 100 100 NW 5 7 30.18 1022 10 16.0934 0 0
3:15 am 03:15 Clear 53 11.8 53 11.8 100 100 Calm 30.18 1022 10 16.0934 0 0
3:35 am 03:35 Clear 53 11.6 53 11.6 100 100 Calm 30.18 1022 10 16.0934 0 0
3:55 am 03:55 Clear 53 11.6 53 11.6 100 100 WNW 3 6 30.18 1022 10 16.0934 0 0
4:15 am 04:15 Clear 53 11.5 53 11.5 100 100 Calm 30.18 1022 10 16.0934 0 0
4:35 am 04:35 Clear 52 11.3 52 11.3 100 100 Calm 30.18 1022 10 16.0934 0 0
4:55 am 04:55 Clear 52 11.1 52 11.1 100 100 Calm 30.18 1022 10 16.0934 0 0
5:15 am 05:15 Clear 51 10.8 51 10.8 100 100 WNW 5 7 30.21 1023 7 11.26538 0 0
5:35 am 05:35 Clear 53 11.6 53 11.6 100 100 WNW 3 6 30.18 1022 10 16.0934 0 0
5:55 am 05:55 Clear 52 10.9 52 10.9 100 100 Calm 30.21 1023 10 16.0934 0 0
6:15 am 06:15 Clear 51 10.6 51 10.6 100 100 WNW 5 7 30.21 1023 7 11.26538 0 0
6:35 am 06:35 Sunny 52 11 52 11 100 100 WNW 5 7 30.18 1022 10 16.0934 0 0
6:55 am 06:55 Sunny 52 11 52 11 100 100 WNW 5 7 30.18 1022 10 16.0934 0 0
7:15 am 07:15 Sunny 52 11.3 52 11.3 100 100 WNW 5 7 30.18 1022 10 16.0934 0 0
7:35 am 07:35 Sunny 53 11.8 53 11.8 100 100 WNW 3 6 30.18 1022 10 16.0934 0 0
7:55 am 07:55 Sunny 55 13 55 12.8 99 99 Calm 30.18 1022 10 16.0934 0 0
8:15 am 08:15 Sunny 57 14.1 57 13.7 97 97 Calm 30.18 1022 10 16.0934 0 0
8:35 am 08:35 Sunny 60 15.5 58 14.5 94 94 NW 3 6 30.15 1021 10 16.0934 0 0
8:55 am 08:55 Sunny 62 16.5 58 14.7 89 89 NW 6 9 30.15 1021 10 16.0934 0 0
9:15 am 09:15 Sunny 64 17.5 59 15.1 86 86 NW 5 7 30.15 1021 10 16.0934 0 0
9:35 am 09:35 Sunny 65 18.3 60 15.4 83 83 NW 3 6 30.12 1020 10 16.0934 0 0
9:55 am 09:55 Sunny 66 19 60 15.4 80 80 W 6 9 30.12 1020 10 16.0934 0 0
10:15 am 10:15 Sunny 68 19.8 59 15.2 75 75 WNW 6 9 30.12 1020 10 16.0934 0 0
10:35 am 10:35 Sunny 68 20.2 58 14.6 70 70 WNW 5 7 30.12 1020 10 16.0934 0 0
10:55 am 10:55 Sunny 69 20.7 58 14.3 67 67 W 3 6 30.12 1020 10 16.0934 0 0
11:15 am 11:15 Sunny 70 21.1 57 13.8 63 63 WNW 5 7 30.12 1020 10 16.0934 0 0
11:35 am 11:35 Sunny 71 21.6 57 13.8 61 61 WNW 3 6 30.09 1019 10 16.0934 0 0
11:55 am 11:55 Sunny 71 21.7 57 13.7 61 61 Calm 30.09 1019 10 16.0934 0 0
12:15 pm 12:15 Sunny 72 22.1 57 13.8 59 59 Calm 30.09 1019 10 16.0934 0 0
12:35 pm 12:35 Sunny 72 22.4 56 13.3 57 57 NNE 3 6 30.09 1019 10 16.0934 0 0
12:55 pm 12:55 Sunny 73 22.8 57 13.7 57 57 WNW 5 7 30.06 1018 10 16.0934 0 0
1:15 pm 13:15 Sunny 73 23 56 13.2 54 54 W 3 6 30.06 1018 10 16.0934 0 0
1:35 pm 13:35 Sunny 74 23.1 56 13.1 53 53 Calm 30.06 1018 10 16.0934 0 0
1:55 pm 13:55 Sunny 75 23.8 57 13.7 53 53 WSW 5 7 30.06 1018 10 16.0934 0 0
2:15 pm 14:15 Sunny 75 23.7 56 13.6 53 53 Calm 30.06 1018 10 16.0934 0 0
2:35 pm 14:35 Sunny 75 23.9 55 12.7 50 50 Calm 30.06 1018 10 16.0934 0 0
2:55 pm 14:55 Sunny 76 24.3 57 13.9 52 52 S 3 6 30.03 1017 10 16.0934 0 0
3:15 pm 15:15 Sunny 76 24.3 56 13.6 51 51 S 5 7 30.03 1017 10 16.0934 0 0
3:35 pm 15:35 Sunny 76 24.4 56 13.4 50 50 Calm 30 1016 10 16.0934 0 0
3:55 pm 15:55 Sunny 76 24.7 55 12.7 47 47 S 5 7 30 1016 10 16.0934 0 0
4:15 pm 16:15 Sunny 76 24.6 53 11.4 44 44 SE 5 7 30 1016 10 16.0934 0 0
4:35 pm 16:35 Sunny 77 25.2 55 12.8 46 46 SSW 5 7 30 1016 10 16.0934 0 0
4:55 pm 16:55 Sunny 77 25.2 53 11.5 42 42 S 3 6 30 1016 10 16.0934 0 0
5:15 pm 17:15 Sunny 77 25.1 54 12.2 45 45 Calm 30 1016 10 16.0934 0 0
5:35 pm 17:35 Sunny 78 25.5 54 12.3 44 44 SW 3 6 30 1016 10 16.0934 0 0
5:55 pm 17:55 Sunny 77 25.2 54 12 44 44 Calm 30 1016 10 16.0934 0 0
6:15 pm 18:15 Sunny 78 25.3 53 11.9 43 43 SSW 5 7 30 1016 10 16.0934 0 0
6:35 pm 18:35 Sunny 77 25.1 54 12.1 44 44 S 5 7 30 1016 10 16.0934 0 0
7:15 pm 19:15 Sunny 76 24.6 57 13.9 51 51 SSE 5 7 29.97 1015 10 16.0934 0 0
7:35 pm 19:35 Sunny 75 24.1 58 14.2 54 54 SSE 3 6 29.97 1015 10 16.0934 0 0
7:55 pm 19:55 Sunny 74 23.6 60 15.5 61 61 Calm 30.03 1017 10 16.0934 0 0
8:15 pm 20:15 Sunny 73 23 60 15.4 62 62 S 3 6 30 1016 10 16.0934 0 0
8:35 pm 20:35 Sunny 72 22 60 15.7 68 68 S 3 6 30 1016 10 16.0934 0 0
8:55 pm 20:55 Clear 71 21.5 58 14.7 65 65 S 3 6 30 1016 10 16.0934 0 0
9:15 pm 21:15 Clear 69 20.5 58 14.5 69 69 S 3 6 30 1016 10 16.0934 0 0
9:35 pm 21:35 Clear 67 19.7 59 14.8 73 73 S 3 6 30.03 1017 10 16.0934 0 0
9:55 pm 21:55 Clear 67 19.3 58 14.2 72 72 S 3 6 30.03 1017 10 16.0934 0 0
10:15 pm 22:15 Clear 64 17.9 57 13.9 78 78 Calm 30.03 1017 10 16.0934 0 0
10:35 pm 22:35 Clear 64 18 56 13.5 75 75 S 3 6 30.06 1018 10 16.0934 0 0
10:55 pm 22:55 Clear 64 18 56 13.5 75 75 S 3 6 30.03 1017 10 16.0934 0 0
11:15 pm 23:15 Clear 61 16.1 56 13.6 85 85 S 3 6 30.06 1018 10 16.0934 0 0
11:35 pm 23:35 Clear 63 17 56 13.2 78 78 S 3 6 30.03 1017 10 16.0934 0 0
11:55 pm 23:55 Clear 62 16.8 55 12.8 77 77 S 5 7 30.06 1018 10 16.0934 0 0

Powered by AerisWeather